Terminal Aerodrome Forecast
Issued by NWS Paducah, KY

Home | Current Version | Previous Version | Graphics & Text | Print | Product List | Glossary On
Versions: 1 2 3 4 5 6 7 8 9 10 11 12 13 14 15 16 17 18 19 20 21 22
000
FTUS43 KPAH 042200 AAB
TAFPAH
TAF AMD
KPAH 042200Z 0422/0518 36012G18KT 2SM -SNPL BR OVC025
      TEMPO 0422/0502 1/4SM +SN FG OVC010
     FM050200 01014G21KT 2SM -SN BR OVC008
     FM050900 02014KT P6SM OVC025
     FM051400 01010KT P6SM OVC050=

USA.gov is the U.S. government's official web portal to all federal, state and local government web resources and services.